Tracking 17782 objects as of 26-July-2016
HD Live streaming from Space Station
objects crossing your sky now

BEESAT

Track BEESAT now!
10-day predictions
BEESAT is classified as:


NORAD ID: 35933
Int'l Code: 2009-051C
Perigee: 709.1 km
Apogee: 717.5 km
Inclination: 98.5 °
Period: 98.9 minutes
Semi major axis: 7084 km
RCS: 0.033 m2 (small)
Launch date: September 23, 2009
Source: Germany (GER)
Launch site: SIRHARIKOTA (SRI)
Uplink (MHz):
Downlink (MHz): 436.000
Beacon (MHz): 436.000
Mode: 9600/4800bps GMSK
Call sign: DP0BEE
Status: Active


BEESAT is a a cubesat satellite built by student teams to test new attitude control systems.
Your satellite tracking list
Your tracking list is empty





NASA's NSSDC Master Catalog

Two Line Element Set (TLE):
1 35933U 09051C   16207.22779233  .00000183  00000-0  52373-4 0  9995
2 35933  98.4557 335.8916 0005908 177.6778 182.4448 14.55982938362841
Source of the keplerian elements: AFSPC

N2YO: 824